Location: Oshawa
(43.9000°N, 78.8670°W)
Time: 21:12:05
(UTC-04:00)

Explorer 7 - Visible Passes

Search period start: 04 September 2015 00:00
Search period end: 14 September 2015 00:00
Orbit: 488 x 692 km, 50.3° (Epoch: 04 September)

Date Brightness Start Highest point End Pass type
(mag) Time Alt. Az. Time Alt. Az. Time Alt. Az.
04 Sep 8.8 05:07:26 12° S 05:09:44 18° SE 05:12:26 10° E visible
05 Sep 8.0 05:14:56 18° S 05:17:03 31° SE 05:20:25 10° ENE visible
06 Sep 7.1 05:22:21 23° SSW 05:24:25 52° SE 05:28:06 10° ENE visible
07 Sep 9.4 03:53:12 13° ESE 03:53:12 13° ESE 03:53:57 10° E visible
07 Sep 6.5 05:29:41 24° WSW 05:31:51 85° SSE 05:35:38 10° ENE visible
08 Sep 8.9 04:00:29 20° ESE 04:00:29 20° ESE 04:02:08 10° E visible
08 Sep 6.7 05:36:59 21° WSW 05:39:21 64° NNW 05:43:07 10° ENE visible
09 Sep 8.4 04:07:44 29° E 04:07:44 29° E 04:09:54 10° ENE visible
09 Sep 7.2 05:44:13 17° W 05:46:55 46° NNW 05:50:34 10° NE visible
10 Sep 7.9 04:14:56 39° ENE 04:14:56 39° ENE 04:17:27 10° ENE visible
10 Sep 7.7 05:51:25 13° WNW 05:54:32 36° NNW 05:58:03 10° NE visible
11 Sep 7.5 04:22:07 47° NE 04:22:07 47° NE 04:24:56 10° ENE visible
11 Sep 7.9 05:58:43 10° WNW 06:02:11 31° N 06:05:36 10° ENE visible
12 Sep 7.5 04:29:16 46° NNE 04:29:16 46° NNE 04:32:23 10° ENE visible
12 Sep 8.1 06:06:26 10° WNW 06:09:50 30° N 06:13:13 10° ENE visible
13 Sep 7.6 04:36:26 39° N 04:36:26 39° N 04:39:51 10° NE visible
13 Sep 8.1 06:14:04 10° WNW 06:17:30 31° N 06:20:55 10° ENE visible
